Hourly Data Report for October 04, 2012

All times are specified in Local Standard Time (LST). Add 1 hour to adjust for Daylight Saving Time where and when it is observed.

KITCHENER/WATERLOO
ONTARIO

43°27'39.000" N
80°22'43.000" W
321.60 m
6144239
71368
YKF

Download Data

Hourly Data (October 2012)
Hourly Data Report for October 4, 2012
Temp Definition
°C
Dew Point Temp Definition
°C
Rel Hum Definition
%
Wind Dir Definition
10's deg

Wind Spd Definition
km/h
Visibility Definition
km
Stn Press Definition
kPa
Hmdx Definition


Wind Chill Definition


Weather Definition


TIME
00:00 Legend Double Dagger 14.6 11.8 83 21 8 16.1 98.16     LegendNANA
01:00 Legend Double Dagger 13.9 12.1 89 18 9 16.1 98.16     LegendNANA
02:00 Legend Double Dagger 13.7 12.4 92 17 5 16.1 98.14     LegendNANA
03:00 Legend Double Dagger 13.5 12.6 94 19 9 11.3 98.13     LegendNANA
04:00 Legend Double Dagger 13.5 12.7 95 20 9 8.1 98.10     LegendNANA
05:00 Legend Double Dagger 13.4 12.8 96 20 11 6.4 98.09     LegendNANA
06:00 Legend Double Dagger 13.8 12.9 94 20 13 6.4 98.07     LegendNANA
07:00 Legend Double Dagger 14.6 13.5 93 19 17 8.1 98.07     LegendNANA
08:00 Legend Double Dagger 15.3 13.7 90 20 17 12.9 98.04     LegendNANA
09:00 Legend Double Dagger 17.1 13.9 81 20 18 16.1 98.04     LegendNANA
10:00 Legend Double Dagger 18.7 12.8 68 23 18 16.1 98.03     LegendNANA
11:00 Legend Double Dagger 20.8 13.0 60 24 24 16.1 97.97     LegendNANA
12:00 Legend Double Dagger 21.4 11.0 51 23 33 16.1 97.92     LegendNANA
13:00 Legend Double Dagger 21.6 11.2 51 21 30 16.1 97.86     LegendNANA
14:00 Legend Double Dagger 20.9 12.2 57 24 32 16.1 97.81     LegendNANA
15:00 Legend Double Dagger 20.8 12.7 60 22 24 16.1 97.82     LegendNANA
16:00 Legend Double Dagger 20.5 11.0 54 26 30 16.1 97.84     LegendNANA
17:00 Legend Double Dagger 20.0 11.2 57 24 21 16.1 97.88     LegendNANA
18:00 Legend Double Dagger 17.7 10.5 62 24 13 16.1 97.90     LegendNANA
19:00 Legend Double Dagger 16.3 11.1 71 20 11 16.1 97.91     LegendNANA
20:00 Legend Double Dagger 16.3 11.9 75 21 18 16.1 97.90     LegendNANA
21:00 Legend Double Dagger 15.3 11.5 78 21 15 16.1 97.88     LegendNANA
22:00 Legend Double Dagger 14.8 11.1 78 20 13 16.1 97.84     LegendNANA
23:00 Legend Double Dagger 13.9 10.8 81 19 9 16.1 97.79     LegendNANA

Notes on Data Quality.

Legend

  • E = Estimated
  • M = Missing
  • NA = Not Available
  • ‡ = Partner data that is not subject to review by the National Climate Archives
Date modified: